SCP
0 0 0 0 0 0 0 0 0 0 0 0 0 0 0 0 0 0 0 0 0 0 0 0 1 1 1 0 0 0 0 0 0 0 0 0 0 0 0 0 0 0 0 1 1 1 0 0 0
0 0 0 0 0 0 0 0 0 0 0 0 0 0 0 0 0 0 0 0 0 0 0 0 1 1 1 1 1 1 1 0 0 0 0 0 0 0 0 0 0 0 0 1 1 1 1 0 0
0 0 0 0 0 0 0 0 0 0 0 0 0 0 0 0 0 0 0 0 0 0 0 0 0 1 1 1 1 1 1 1 1 0 0 0 0 0 0 0 0 0 0 1 1 1 1 1 1
0 0 0 0 0 0 0 0 0 0 0 0 0 0 0 0 0 0 0 0 0 0 0 0 0 0 1 1 1 1 2 2 1 1 1 1 0 0 0 1 1 1 1 1 1 1 1 1 1
0 0 0 0 0 0 0 0 0 0 0 0 0 0 0 0 0 0 0 0 0 0 0 0 0 0 0 0 0 1 1 1 1 1 1 1 1 1 1 1 1 1 1 1 1 1 1 1 1
0 0 0 0 0 0 0 0 0 0 0 0 0 0 0 0 0 0 0 0 0 0 0 0 0 0 0 0 0 0 0 0 1 1 1 1 2 1 1 1 1 1 1 1 1 1 1 1 1
0 0 0 0 0 0 0 0 0 0 0 0 0 0 0 0 0 0 0 0 0 0 0 0 0 0 0 0 0 0 0 0 0 0 0 1 1 2 2 1 1 1 1 1 1 1 1 1 1
0 0 0 0 0 0 0 0 0 0 0 0 0 0 0 0 0 0 0 0 0 0 0 0 0 0 0 0 0 0 0 0 0 0 0 0 0 1 1 1 2 2 2 2 1 1 1 2 2
0 0 0 0 0 0 0 0 0 0 0 0 0 0 0 0 0 0 0 0 0 0 0 0 0 0 0 0 0 0 0 0 0 0 0 0 0 0 0 1 1 2 2 2 2 2 2 2 2
0 0 0 0 0 0 0 0 0 0 0 0 0 0 0 0 0 0 0 0 0 0 0 0 0 0 0 0 0 0 0 0 0 0 0 0 0 0 0 0 0 1 1 2 1 1 1 1 1
0 0 0 0 0 0 0 0 0 0 0 0 0 0 0 0 0 0 0 0 0 0 0 0 0 0 0 0 0 0 0 0 0 0 0 0 0 0 0 0 0 0 1 1 1 1 1 1 1
0 0 0 0 0 0 0 0 0 0 0 0 0 0 0 0 0 0 0 0 0 0 0 0 0 0 0 0 0 0 0 0 0 0 0 0 0 0 0 0 0 0 0 0 1 1 1 1 1
0 0 0 0 0 0 0 0 0 0 0 0 0 0 0 0 0 0 0 0 0 0 0 0 0 0 0 0 0 0 0 0 0 0 0 0 0 0 0 0 0 0 0 0 0 0 0 0 0
0 0 0 0 0 0 0 0 0 0 0 0 0 0 0 0 0 0 0 0 0 0 0 0 0 0 0 0 0 0 0 0 0 0 0 0 0 0 0 0 0 0 0 0 0 0 0 0 0
0 0 0 0 0 0 0 0 0 0 0 0 0 0 0 0 0 0 0 0 0 0 0 0 0 0 0 0 0 0 0 0 0 0 0 0 0 0 0 0 0 0 0 0 0 0 0 0 0
0 0 0 0 0 0 0 0 0 0 0 0 0 0 0 0 0 0 0 0 0 0 0 0 0 0 0 0 0 0 0 0 0 0 0 0 0 0 0 0 0 0 0 0 0 0 0 0 0
0 0 0 0 0 0 0 0 0 0 0 0 0 0 0 0 0 0 0 0 0 0 0 0 0 0 0 0 0 0 0 0 0 0 0 0 0 0 0 0 0 0 0 0 0 0 0 0 0
0 0 0 0 0 0 0 0 0 0 0 0 0 0 0 0 0 0 0 0 0 0 0 0 0 0 0 0 0 0 0 0 0 0 0 0 0 0 0 0 0 0 0 0 0 0 0 0 0
0 0 0 0 0 0 0 0 0 0 0 0 0 0 0 0 0 0 0 0 0 0 0 0 0 0 0 0 0 0 0 0 0 0 0 0 0 0 0 0 0 0 0 0 0 0 0 0 0
0 0 0 0 0 0 0 0 0 0 0 0 0 0 0 0 0 0 0 0 0 0 0 0 0 0 0 0 0 0 0 0 0 0 0 0 0 0 0 0 0 0 0 0 0 0 0 0 0
0 0 0 0 0 0 0 0 0 0 0 0 0 0 0 0 0 0 0 0 0 0 0 0 0 0 0 0 0 0 0 0 0 0 0 0 0 0 0 0 0 0 0 0 0 0 0 0 0
0 0 0 0 0 0 0 0 0 0 0 0 0 0 0 0 0 0 0 0 0 0 0 0 0 0 0 0 0 0 0 0 0 0 0 0 0 0 0 0 0 0 0 0 0 0 0 0 0
0 0 0 0 0 0 0 0 0 0 0 0 0 0 0 0 0 0 0 0 0 0 0 0 0 0 0 0 0 0 0 0 0 0 0 0 0 0 0 0 0 0 0 0 0 0 0 0 0
0 0 0 0 0 0 0 0 0 0 0 0 0 0 0 0 0 0 0 0 0 0 0 0 0 0 0 0 0 0 0 0 0 0 0 0 0 0 0 0 0 0 0 0 0 0 0 0 0
0 0 0 0 0 0 0 0 0 0 0 0 0 0 0 0 0 0 0 0 0 0 0 0 0 0 0 0 0 0 0 0 0 0 0 0 0 0 0 0 0 0 0 0 0 0 0 0 0
0 0 0 0 0 0 0 0 0 0 0 0 0 0 0 0 0 0 0 0 0 0 0 0 0 0 0 0 0 0 0 0 0 0 0 0 0 0 0 0 0 0 0 0 0 0 0 0 0
0 0 0 0 0 0 0 0 0 0 0 0 0 0 0 0 0 0 0 0 0 0 0 0 0 0 0 0 0 0 0 0 0 0 -0 -0 0 0 0 0 0 0 0 0 0 0 0 0 0
0 0 0 0 0 0 0 0 0 0 0 0 0 0 0 0 0 0 0 0 0 0 0 0 0 0 0 0 0 0 0 0 0 0 -0 -0 -0 -0 0 0 0 0 0 0 0 0 0 0 0
0 0 0 0 0 0 0 0 0 0 0 0 0 0 0 0 0 0 0 0 0 0 0 0 0 0 0 0 0 0 0 0 0 0 0 -0 -0 -0 -0 0 0 0 0 0 0 0 0 0 0
0 0 0 0 0 0 0 0 0 0 0 0 0 0 0 0 0 0 0 0 0 0 0 0 0 0 0 0 0 0 0 0 0 0 0 -0 -0 -0 -0 0 0 0 0 0 0 0 0 0 0
Wind_Speed
9 6 3 3 3 11 15 9 8 12 15 18 20 21 22 22 14 11 17 26 27 21 19 19 19 15 12 10 8 7 7 7 8 10 10 10 11 10 10 9 8 9 9 10 10 9 8 7 6
8 4 2 1 8 16 15 11 12 13 8 9 16 18 19 20 19 15 20 26 22 20 19 21 26 24 20 18 16 12 10 8 7 8 10 11 12 12 11 10 10 9 10 11 11 10 10 9 7
4 3 1 6 14 15 13 13 10 13 18 11 13 17 15 15 16 16 18 20 17 17 17 21 28 27 27 26 23 20 18 15 11 9 12 12 14 13 13 12 11 11 11 11 11 10 11 10 8
3 1 5 14 19 18 16 17 14 11 17 16 14 16 13 14 12 15 17 17 18 19 18 22 28 28 28 27 28 28 26 23 18 14 13 13 14 13 13 14 12 11 11 11 11 10 10 9 8
1 5 12 17 19 17 19 18 18 19 15 17 18 17 12 13 13 14 16 19 20 20 19 21 27 27 28 28 28 27 26 27 26 25 21 18 15 13 13 14 13 12 11 11 10 9 8 7 8
2 5 14 17 17 15 16 18 17 19 19 14 11 13 12 15 16 17 18 19 20 19 19 19 22 25 26 28 29 28 27 27 26 26 26 25 23 16 13 12 13 12 11 9 8 8 8 7 6
8 9 14 15 13 11 11 13 16 17 17 17 10 10 12 19 17 15 16 17 18 19 18 18 18 20 21 23 27 27 28 28 27 26 26 24 23 21 18 14 14 12 11 10 10 9 8 8 7
3 7 10 10 11 7 7 11 17 19 21 14 14 13 12 17 15 13 14 16 18 18 18 17 17 16 16 16 22 24 26 26 26 25 25 23 19 20 20 17 17 16 13 12 12 10 10 9 7
1 7 10 7 8 8 6 11 13 19 22 22 18 15 12 12 14 15 16 18 20 19 18 17 17 17 16 15 16 18 21 22 22 21 21 17 13 14 15 16 20 18 14 14 13 13 11 9 8
6 9 11 10 11 13 13 14 11 14 19 19 18 15 13 14 17 20 22 22 22 21 19 18 18 18 17 14 14 13 13 14 15 16 17 14 13 13 15 14 17 18 15 13 12 13 11 9 8
10 12 14 16 17 18 19 18 10 9 14 14 14 14 14 17 20 21 21 21 20 20 19 18 17 16 15 13 12 10 10 11 12 15 16 14 13 12 13 11 11 12 12 10 9 9 8 9 8
14 13 12 12 11 12 14 15 19 17 13 11 11 12 15 18 19 20 20 20 19 19 20 19 19 16 16 14 12 12 11 11 11 13 15 14 11 11 12 11 12 11 10 11 10 8 8 9 10
17 16 17 19 19 18 19 17 17 15 11 9 10 13 16 17 17 17 18 19 19 19 20 20 20 18 17 14 13 13 13 12 13 12 13 14 12 13 14 12 12 11 12 12 12 11 11 10 10
18 21 19 17 15 14 17 14 11 10 8 9 11 13 15 17 18 18 19 20 21 20 20 20 20 19 18 15 15 14 13 13 13 12 14 16 14 14 13 13 12 12 12 13 13 13 12 10 10
21 20 15 8 9 13 9 13 10 6 6 9 11 12 13 16 17 19 19 20 21 20 20 20 18 19 19 17 15 13 13 13 12 13 15 16 17 16 15 13 12 11 12 14 13 14 12 11 10
10 9 7 8 3 2 6 5 7 4 6 9 10 11 12 14 17 18 18 19 20 19 19 18 16 17 18 16 15 13 13 12 11 12 13 17 18 18 16 13 12 13 12 11 11 11 11 11 11
5 2 5 6 5 1 2 8 7 4 5 8 10 11 12 14 16 17 18 19 20 19 19 19 19 18 18 17 15 13 13 13 12 12 12 15 17 18 16 13 13 14 11 10 10 10 11 11 12
4 5 4 3 8 8 9 11 9 5 6 8 10 12 13 15 16 17 18 19 20 19 19 20 19 18 17 14 13 13 12 11 12 12 14 16 15 17 16 13 15 14 11 11 12 13 12 12 12
4 5 4 5 5 5 9 12 9 6 7 9 10 11 12 13 14 15 17 19 20 21 21 21 20 20 17 13 14 15 14 12 11 12 17 17 17 17 16 13 15 14 13 14 14 13 14 12 11
5 3 4 5 4 5 9 9 7 4 6 8 9 10 12 14 16 16 16 17 19 19 19 20 19 19 16 13 14 14 12 12 13 12 14 16 18 17 14 14 12 14 15 15 15 14 12 12 11
1 3 1 0 6 5 8 8 8 5 3 5 6 8 10 13 15 16 16 18 19 19 18 18 18 18 16 16 13 13 15 14 12 13 13 15 17 16 14 14 12 12 12 11 13 13 14 13 13
1 3 4 6 8 4 6 2 9 6 1 5 9 11 13 13 15 17 17 17 18 17 16 17 17 17 16 16 14 16 13 14 15 14 14 16 16 16 15 14 12 11 11 12 11 13 11 12 12
5 4 2 7 5 3 5 5 7 5 3 8 11 13 14 13 15 16 15 15 16 16 15 15 16 16 16 16 15 15 14 14 14 13 16 16 16 16 16 16 14 13 11 12 13 13 12 10 10
4 1 4 4 4 4 4 4 5 3 4 10 13 15 16 15 15 15 13 13 14 15 14 14 16 16 16 17 17 17 17 17 17 18 16 14 14 14 16 17 16 15 13 13 13 14 14 12 12
8 5 2 3 3 1 4 4 4 5 6 10 13 16 16 14 14 14 14 14 15 15 15 14 17 17 17 17 18 18 18 18 18 17 16 16 13 13 16 18 16 16 16 15 14 14 14 14 14
6 7 7 7 8 5 2 2 6 5 5 8 12 14 16 14 14 13 14 14 15 15 16 16 17 17 17 17 18 17 17 14 14 16 16 15 13 14 18 18 18 19 18 16 15 13 14 13 13
2 3 2 6 5 7 1 3 4 2 7 12 14 15 16 14 14 13 14 14 15 16 16 16 17 17 17 17 17 16 16 16 16 17 16 14 15 15 18 19 18 19 18 18 16 14 16 14 13
3 3 3 4 8 10 4 2 1 1 11 15 15 16 16 14 13 13 13 14 14 15 15 16 17 17 16 16 15 14 15 16 16 16 17 17 18 19 20 19 19 19 17 17 17 14 14 14 13
1 2 2 3 2 8 11 4 5 5 11 14 15 16 15 14 13 14 13 13 14 15 15 16 17 16 16 15 15 15 15 15 15 15 17 17 18 19 19 20 20 19 18 18 16 18 14 15 14
1 2 2 5 3 4 7 3 5 6 10 12 15 16 15 13 13 14 13 14 14 15 15 15 16 16 16 15 15 14 14 15 15 16 17 18 18 19 18 19 20 19 19 19 18 19 15 14 15
Wind_Direction
320 319 292 242 145 92 79 62 61 69 65 61 63 77 75 49 15 42 347 356 344 358 5 10 4 359 355 351 351 358 348 343 338 339 345 334 324 318 311 314 315 313 310 304 300 296 290 276 264
325 310 243 283 104 94 75 52 52 42 41 85 61 65 61 44 15 8 346 334 347 2 7 6 10 7 2 2 358 353 339 327 321 328 326 316 312 309 305 306 305 307 309 307 298 291 283 272 253
298 296 56 71 68 65 58 32 35 60 49 48 74 54 46 7 360 353 335 328 352 8 9 8 15 17 18 17 11 2 352 342 333 331 317 309 305 302 296 293 295 298 301 300 295 284 279 271 253
301 177 85 85 77 54 42 29 22 56 48 40 81 77 75 25 1 341 337 349 6 12 10 14 17 20 22 22 19 15 8 0 350 337 315 304 300 296 296 294 292 296 294 290 290 282 276 269 253
296 83 94 88 82 70 46 33 39 53 56 37 64 78 69 22 8 358 359 9 12 13 10 14 18 19 23 23 22 20 17 14 8 360 343 330 316 307 315 308 291 292 292 287 287 292 283 265 251
85 94 100 93 86 69 51 32 43 50 53 40 60 81 56 14 8 6 9 16 16 15 12 12 15 15 19 21 19 18 18 17 13 8 1 353 339 322 317 314 299 287 283 287 285 295 294 279 263
80 87 89 95 93 59 35 30 36 42 40 36 31 77 48 15 9 8 16 19 22 20 17 14 13 12 12 17 15 12 13 13 11 9 4 357 350 344 332 320 308 305 290 285 285 279 277 273 262
50 95 96 80 88 81 62 66 48 47 46 46 38 50 28 10 12 21 26 25 26 23 18 15 12 11 6 8 10 8 10 8 6 4 1 355 351 353 345 337 332 321 302 296 295 284 279 269 261
359 94 84 75 91 109 100 85 68 69 69 64 62 59 40 25 26 30 28 26 23 19 16 10 10 6 3 2 2 2 5 3 2 359 354 350 348 349 343 345 346 336 313 298 289 280 280 280 254
50 79 64 56 84 95 80 82 90 80 63 59 59 53 41 35 31 30 27 21 17 14 12 9 7 3 360 355 354 356 358 358 356 355 350 345 342 343 339 341 344 338 332 310 287 270 266 260 247
52 88 97 85 96 98 87 74 71 77 61 50 48 42 38 36 33 29 25 20 15 10 9 7 5 3 1 353 351 350 349 350 349 351 350 345 343 343 342 341 344 336 332 322 307 283 264 265 265
87 76 90 102 100 93 89 88 71 69 78 66 57 46 39 35 32 27 20 16 11 8 6 3 360 360 359 352 352 348 346 345 344 343 348 347 345 344 341 339 338 337 334 327 319 301 279 266 266
90 97 97 106 101 97 96 88 84 75 75 71 63 53 43 37 32 28 20 14 8 5 2 360 356 357 354 351 350 344 344 344 339 341 346 347 344 342 338 336 335 334 334 330 321 310 297 280 260
112 115 117 114 103 102 95 82 81 76 85 79 62 50 42 35 27 22 16 12 6 2 358 355 353 353 352 350 350 342 341 339 336 339 343 345 345 339 336 333 332 332 332 326 317 308 301 289 279
126 120 118 114 117 129 107 69 77 90 89 70 57 47 40 34 28 22 14 10 2 358 355 353 351 350 351 349 346 341 338 338 338 339 342 349 346 341 337 330 330 332 330 320 315 309 301 287 275
144 148 127 75 157 195 248 103 98 99 89 67 52 43 37 33 28 20 14 8 2 358 355 350 348 346 348 348 345 342 340 341 339 339 343 349 343 345 335 332 332 332 325 319 315 308 304 295 283
169 124 117 110 38 156 135 130 124 119 93 66 49 41 32 27 23 17 13 8 2 359 356 353 351 349 350 350 346 345 347 344 341 340 349 343 343 342 337 332 332 332 327 323 319 312 305 296 288
96 116 124 111 60 79 107 120 117 102 76 57 42 34 26 21 17 13 9 6 1 358 355 353 349 349 350 350 347 346 344 344 342 342 345 342 342 339 336 332 332 331 330 327 324 314 304 297 290
105 119 126 115 111 86 113 126 122 106 71 52 38 27 18 13 10 11 7 3 358 357 356 353 350 348 348 352 348 345 341 344 343 343 340 340 338 338 336 336 333 333 329 326 321 318 309 299 295
140 134 106 106 106 127 140 136 130 110 69 44 26 17 8 3 4 3 358 360 359 356 353 351 351 347 347 354 347 339 334 339 341 340 335 334 333 335 337 332 331 333 328 323 322 324 318 307 303
145 355 348 106 121 113 158 169 172 145 99 49 31 9 2 4 359 354 355 359 357 354 350 349 350 346 349 352 347 342 342 341 341 340 334 332 330 327 330 328 327 326 316 312 318 317 314 314 305
306 11 307 174 176 148 203 234 168 160 139 18 10 3 356 357 354 353 356 357 355 350 347 347 348 345 348 349 350 346 343 339 338 336 332 329 327 324 327 323 326 322 315 315 312 309 305 297 298
5 360 124 170 196 195 190 265 104 177 282 357 358 352 352 353 352 352 354 352 348 349 346 345 344 345 349 349 350 344 340 338 334 335 332 331 328 325 329 321 328 322 315 311 310 305 301 293 287
333 165 126 156 215 252 121 261 114 134 2 351 349 345 350 353 349 349 348 346 347 349 345 346 345 347 350 349 349 345 340 339 336 336 335 333 328 328 325 327 327 321 317 317 310 306 302 295 284
354 327 261 218 235 10 116 240 103 92 27 356 344 347 351 350 347 347 347 348 349 348 345 347 346 346 348 348 346 344 341 338 336 335 333 330 329 326 323 326 324 318 318 315 309 301 295 294 288
18 352 3 320 323 325 183 266 113 92 17 349 346 349 353 351 350 349 349 347 347 347 347 347 346 344 345 345 343 341 340 337 333 331 328 326 324 322 321 322 320 317 317 315 310 300 295 296 294
354 16 342 291 283 282 220 125 159 143 350 347 351 353 356 353 350 350 348 348 349 350 348 347 345 342 342 341 340 339 340 338 333 329 326 324 324 322 322 321 321 316 316 318 317 306 303 303 298
64 73 314 318 323 314 303 278 111 298 346 350 352 355 354 354 355 351 352 351 350 350 348 347 346 342 340 340 339 337 338 337 333 330 329 327 325 324 323 324 322 316 317 322 318 304 302 308 304
80 86 29 302 303 304 311 6 90 23 353 348 350 358 354 355 355 351 351 351 349 349 348 347 345 342 341 340 338 337 337 336 335 333 330 328 326 324 324 325 323 321 324 327 321 306 315 315 312
24 32 336 315 299 271 285 287 130 13 350 349 351 356 355 352 349 351 350 350 349 348 348 346 343 341 340 339 338 337 337 338 338 337 334 332 329 326 326 327 323 322 325 326 321 310 318 322 322